Location: Lanoux
(43.1180°N, 1.4255°E)
Time: 13:06:29
(UTC+00:00)

Meteor 2-10 - Pass Details

Date: 21 March 2026
Orbit: 736 x 866 km, 81.2° (Epoch: 18 April)

Event Time Altitude Azimuth Distance (km) Brightness Sun altitude
Rises 19:24:02 0° 231° (SW) 3,258 7.8 -14.6°
Reaches altitude 10° 19:27:07 10° 249° (WSW) 2,311 7.3 -15.1°
Maximum altitude 19:30:41 19° 293° (WNW) 1,777 7.0 -15.8°
Drops below altitude 10° 19:34:13 10° 337° (NNW) 2,277 7.0 -16.4°
Sets 19:37:15 0° 356° (N) 3,192 7.5 -16.9°
